QPF
0.02 0.00 0.00 0.00 0.01 0.01 0.02 0.03 0.05 0.04 0.02 0.03 0.05 0.03 0.04 0.05 0.07 0.08 0.05 0.07 0.12 0.18 0.16 0.16 0.09 0.05 0.02 0.02 0.03 0.02 0.00 0.00 0.00 0.00 0.00 0.00 0.02 0.05 0.02 0.01 0.01 0.00 0.00
0.00 0.00 0.00 0.00 0.00 0.00 0.00 0.02 0.01 0.00 0.01 0.01 0.03 0.04 0.04 0.03 0.07 0.07 0.06 0.10 0.13 0.08 0.06 0.07 0.05 0.08 0.11 0.13 0.07 0.02 0.01 0.01 0.04 0.06 0.04 0.00 0.00 0.00 0.01 0.01 0.00 0.00 0.00
0.00 0.00 0.00 0.00 0.00 0.00 0.00 0.00 0.00 0.00 0.00 0.00 0.00 0.04 0.03 0.02 0.02 0.05 0.07 0.10 0.09 0.02 0.01 0.01 0.05 0.08 0.08 0.08 0.03 0.00 0.00 0.01 0.02 0.05 0.02 0.00 0.00 0.00 0.00 0.00 0.00 0.00 0.00
0.00 0.00 0.00 0.01 0.02 0.00 0.00 0.00 0.00 0.00 0.00 0.00 0.00 0.02 0.06 0.04 0.03 0.02 0.02 0.02 0.01 0.00 0.00 0.00 0.00 0.00 0.00 0.00 0.00 0.00 0.00 0.02 0.09 0.06 0.00 0.00 0.00 0.00 0.00 0.01 0.01 0.00 0.00
0.00 0.00 0.00 0.02 0.03 0.00 0.00 0.00 0.00 0.00 0.00 0.02 0.02 0.06 0.08 0.08 0.01 0.03 0.01 0.02 0.01 0.00 0.00 0.00 0.00 0.00 0.00 0.00 0.00 0.00 0.00 0.02 0.05 0.01 0.00 0.00 0.00 0.00 0.00 0.00 0.00 0.01 0.01
0.00 0.00 0.00 0.02 0.01 0.01 0.02 0.01 0.00 0.00 0.01 0.01 0.01 0.01 0.05 0.06 0.02 0.02 0.02 0.01 0.02 0.00 0.00 0.00 0.00 0.00 0.00 0.00 0.00 0.00 0.00 0.00 0.02 0.00 0.00 0.00 0.00 0.00 0.00 0.00 0.00 0.00 0.00
0.00 0.00 0.00 0.01 0.01 0.00 0.00 0.02 0.01 0.00 0.00 0.03 0.03 0.01 0.01 0.00 0.00 0.00 0.00 0.01 0.02 0.00 0.00 0.00 0.00 0.00 0.00 0.00 0.00 0.00 0.00 0.00 0.00 0.00 0.00 0.00 0.00 0.00 0.00 0.00 0.00 0.00 0.00
0.00 0.00 0.00 0.01 0.03 0.01 0.00 0.00 0.01 0.00 0.00 0.00 0.00 0.01 0.02 0.02 0.00 0.01 0.01 0.00 0.00 0.00 0.00 0.00 0.00 0.00 0.00 0.00 0.00 0.00 0.00 0.00 0.00 0.00 0.00 0.00 0.00 0.00 0.00 0.00 0.00 0.00 0.01
0.00 0.00 0.00 0.00 0.00 0.00 0.00 0.00 0.00 0.00 0.01 0.03 0.01 0.02 0.01 0.01 0.00 0.00 0.00 0.00 0.00 0.00 0.00 0.00 0.00 0.00 0.00 0.00 0.00 0.00 0.00 0.00 0.00 0.00 0.00 0.00 0.00 0.00 0.00 0.00 0.00 0.01 0.01
0.00 0.00 0.00 0.00 0.00 0.00 0.00 0.00 0.00 0.00 0.00 0.00 0.00 0.00 0.00 0.00 0.00 0.00 0.00 0.00 0.00 0.00 0.00 0.00 0.00 0.00 0.00 0.00 0.00 0.00 0.00 0.00 0.00 0.00 0.00 0.00 0.00 0.00 0.00 0.00 0.00 0.00 0.00
0.00 0.00 0.00 0.00 0.00 0.00 0.00 0.00 0.00 0.00 0.00 0.00 0.00 0.00 0.00 0.00 0.00 0.00 0.00 0.00 0.00 0.00 0.00 0.00 0.00 0.00 0.00 0.00 0.00 0.00 0.00 0.00 0.00 0.00 0.00 0.00 0.00 0.00 0.00 0.00 0.00 0.00 0.00
0.00 0.00 0.00 0.00 0.00 0.00 0.00 0.00 0.00 0.00 0.00 0.04 0.06 0.06 0.05 0.05 0.01 0.00 0.00 0.00 0.00 0.00 0.00 0.00 0.00 0.00 0.00 0.00 0.00 0.00 0.00 0.00 0.00 0.00 0.00 0.00 0.00 0.00 0.00 0.00 0.00 0.00 0.00
0.00 0.00 0.00 0.00 0.00 0.00 0.00 0.00 0.00 0.00 0.01 0.02 0.09 0.11 0.02 0.01 0.00 0.00 0.00 0.00 0.00 0.00 0.00 0.00 0.00 0.00 0.00 0.00 0.00 0.00 0.00 0.00 0.00 0.00 0.00 0.00 0.00 0.00 0.00 0.00 0.00 0.00 0.00
0.00 0.00 0.00 0.00 0.00 0.00 0.00 0.01 0.01 0.01 0.06 0.03 0.08 0.12 0.03 0.01 0.00 0.00 0.00 0.00 0.00 0.00 0.00 0.00 0.00 0.00 0.00 0.00 0.00 0.00 0.00 0.00 0.00 0.00 0.00 0.00 0.00 0.00 0.00 0.00 0.00 0.00 0.00
0.00 0.00 0.00 0.00 0.00 0.00 0.00 0.02 0.09 0.03 0.05 0.01 0.03 0.05 0.03 0.00 0.00 0.00 0.00 0.00 0.00 0.00 0.00 0.00 0.00 0.00 0.00 0.00 0.00 0.00 0.00 0.00 0.00 0.00 0.00 0.00 0.00 0.00 0.00 0.00 0.00 0.00 0.00
0.00 0.00 0.00 0.00 0.00 0.00 0.01 0.01 0.04 0.02 0.01 0.01 0.00 0.00 0.00 0.00 0.00 0.00 0.00 0.00 0.00 0.00 0.00 0.00 0.00 0.00 0.00 0.00 0.00 0.00 0.00 0.00 0.00 0.00 0.00 0.00 0.00 0.00 0.00 0.00 0.00 0.00 0.00
0.00 0.00 0.00 0.00 0.00 0.00 0.01 0.01 0.01 0.00 0.00 0.01 0.00 0.00 0.00 0.00 0.00 0.00 0.00 0.00 0.00 0.00 0.00 0.00 0.00 0.00 0.00 0.00 0.00 0.00 0.00 0.00 0.00 0.00 0.00 0.00 0.00 0.00 0.00 0.00 0.00 0.00 0.00
0.00 0.00 0.00 0.00 0.00 0.00 0.00 0.01 0.01 0.01 0.00 0.00 0.00 0.00 0.00 0.00 0.00 0.00 0.00 0.00 0.00 0.00 0.00 0.00 0.00 0.00 0.00 0.00 0.00 0.00 0.00 0.00 0.00 0.00 0.00 0.00 0.00 0.00 0.00 0.00 0.00 0.00 0.00
0.00 0.00 0.00 0.00 0.00 0.00 0.00 0.00 0.00 0.00 0.00 0.00 0.00 0.00 0.00 0.00 0.00 0.00 0.00 0.00 0.00 0.00 0.00 0.00 0.00 0.00 0.00 0.00 0.00 0.00 0.00 0.00 0.00 0.00 0.00 0.00 0.00 0.00 0.00 0.00 0.00 0.00 0.00
0.00 0.00 0.00 0.00 0.00 0.00 0.00 0.01 0.00 0.00 0.00 0.00 0.00 0.00 0.00 0.00 0.00 0.00 0.00 0.00 0.00 0.00 0.00 0.00 0.00 0.00 0.00 0.00 0.00 0.00 0.00 0.00 0.00 0.00 0.00 0.00 0.00 0.00 0.00 0.00 0.00 0.00 0.00
0.00 0.00 0.00 0.00 0.00 0.00 0.00 0.00 0.00 0.00 0.00 0.00 0.00 0.00 0.00 0.00 0.00 0.00 0.00 0.00 0.00 0.00 0.00 0.00 0.00 0.00 0.00 0.00 0.00 0.00 0.00 0.00 0.00 0.00 0.00 0.00 0.00 0.00 0.00 0.00 0.00 0.00 0.00
0.00 0.00 0.00 0.00 0.00 0.00 0.00 0.00 0.00 0.00 0.00 0.00 0.01 0.00 0.00 0.00 0.00 0.00 0.00 0.00 0.00 0.00 0.00 0.00 0.00 0.00 0.00 0.00 0.00 0.00 0.00 0.00 0.00 0.00 0.00 0.00 0.00 0.00 0.00 0.00 0.00 0.00 0.00
0.00 0.00 0.00 0.00 0.00 0.00 0.00 0.00 0.00 0.00 0.00 0.01 0.01 0.00 0.00 0.00 0.00 0.00 0.00 0.00 0.00 0.00 0.00 0.00 0.00 0.00 0.00 0.00 0.00 0.00 0.00 0.00 0.00 0.00 0.00 0.00 0.00 0.00 0.00 0.00 0.00 0.00 0.00
0.00 0.00 0.00 0.00 0.00 0.00 0.00 0.00 0.00 0.00 0.00 0.00 0.00 0.00 0.00 0.00 0.00 0.00 0.00 0.00 0.00 0.00 0.00 0.00 0.00 0.00 0.00 0.00 0.00 0.00 0.00 0.00 0.00 0.00 0.00 0.00 0.00 0.00 0.00 0.00 0.00 0.00 0.00
0.00 0.00 0.00 0.00 0.00 0.00 0.00 0.00 0.00 0.00 0.00 0.00 0.00 0.00 0.00 0.00 0.00 0.00 0.00 0.00 0.00 0.00 0.00 0.00 0.00 0.00 0.00 0.00 0.00 0.00 0.00 0.00 0.00 0.00 0.00 0.00 0.00 0.00 0.00 0.00 0.00 0.00 0.00
0.00 0.00 0.00 0.00 0.00 0.00 0.00 0.01 0.01 0.00 0.00 0.00 0.00 0.00 0.00 0.00 0.00 0.00 0.00 0.00 0.01 0.00 0.00 0.00 0.00 0.00 0.00 0.00 0.00 0.00 0.00 0.00 0.00 0.00 0.00 0.00 0.00 0.00 0.00 0.00 0.00 0.00 0.00
MSLP
1012.94 1013.31 1013.62 1013.87 1014.13 1014.34 1014.46 1014.73 1014.98 1015.07 1015.22 1015.33 1015.44 1015.47 1015.50 1015.41 1015.57 1015.69 1015.98 1016.46 1016.90 1016.90 1017.10 1017.00 1016.93 1016.98 1016.99 1017.06 1016.97 1016.90 1016.93 1017.07 1017.14 1017.16 1017.26 1017.47 1017.56 1017.55 1017.45 1017.46 1017.35 1017.74 1017.91
1012.52 1013.31 1013.79 1014.00 1014.31 1014.57 1014.73 1014.92 1015.14 1015.25 1015.45 1015.60 1015.66 1015.80 1015.86 1015.82 1015.89 1015.92 1016.17 1016.63 1016.76 1017.21 1017.30 1017.32 1017.19 1017.38 1017.29 1017.19 1017.04 1017.14 1017.43 1017.49 1017.58 1017.52 1017.46 1017.85 1017.95 1017.99 1017.93 1017.93 1018.02 1018.25 1018.28
1012.54 1013.57 1013.92 1014.31 1014.59 1014.84 1015.08 1015.21 1015.36 1015.46 1015.66 1015.89 1015.96 1016.06 1016.19 1016.24 1016.26 1016.39 1016.54 1016.85 1017.02 1017.30 1017.45 1017.49 1017.59 1017.51 1017.45 1017.35 1017.32 1017.48 1017.54 1017.72 1017.75 1017.57 1017.64 1017.97 1018.29 1018.36 1018.33 1018.34 1018.38 1018.48 1018.55
1012.38 1013.32 1014.07 1014.58 1014.83 1015.03 1015.29 1015.48 1015.56 1015.75 1015.88 1016.13 1016.28 1016.33 1016.52 1016.60 1016.78 1016.87 1017.06 1017.12 1017.19 1017.43 1017.59 1017.66 1017.66 1017.73 1017.79 1017.77 1017.64 1017.56 1017.63 1017.95 1017.72 1017.50 1017.54 1017.80 1018.28 1018.65 1018.63 1018.55 1018.60 1018.75 1018.83
1012.49 1013.46 1014.34 1014.79 1015.05 1015.31 1015.49 1015.67 1015.83 1016.03 1016.17 1016.38 1016.68 1016.71 1016.83 1016.98 1017.17 1017.27 1017.37 1017.47 1017.54 1017.69 1017.79 1017.84 1017.91 1018.01 1018.08 1018.07 1017.93 1017.78 1017.63 1017.87 1017.51 1017.73 1018.06 1018.23 1018.59 1018.92 1018.95 1018.87 1018.87 1018.99 1019.07
1012.89 1013.88 1014.65 1014.97 1015.21 1015.47 1015.71 1015.86 1016.09 1016.34 1016.45 1016.64 1016.86 1016.99 1017.26 1017.43 1017.47 1017.54 1017.69 1017.90 1017.94 1017.96 1018.07 1018.12 1018.19 1018.33 1018.36 1018.32 1018.10 1017.83 1017.83 1018.09 1017.74 1018.01 1018.42 1018.67 1019.12 1019.26 1019.23 1019.23 1019.29 1019.31 1019.33
1013.22 1014.21 1014.81 1015.12 1015.39 1015.63 1015.84 1016.05 1016.27 1016.49 1016.73 1017.00 1017.17 1017.39 1017.48 1017.62 1017.72 1017.80 1017.92 1018.11 1018.16 1018.26 1018.33 1018.39 1018.53 1018.60 1018.54 1018.39 1018.15 1017.98 1018.13 1017.59 1017.86 1018.29 1018.69 1019.19 1019.53 1019.49 1019.49 1019.48 1019.50 1019.50 1019.48
1013.17 1014.28 1014.91 1015.45 1015.64 1015.83 1016.01 1016.19 1016.45 1016.74 1016.98 1017.18 1017.37 1017.59 1017.78 1017.91 1018.02 1018.13 1018.21 1018.39 1018.47 1018.58 1018.65 1018.71 1018.83 1018.78 1018.66 1018.40 1018.27 1018.06 1018.20 1018.08 1017.81 1018.42 1019.06 1019.62 1019.73 1019.64 1019.62 1019.63 1019.60 1019.62 1019.63
1012.88 1014.11 1014.83 1015.44 1015.83 1016.04 1016.21 1016.42 1016.66 1016.90 1017.19 1017.40 1017.57 1017.78 1017.97 1018.09 1018.24 1018.34 1018.51 1018.65 1018.77 1018.91 1018.95 1018.94 1018.90 1018.85 1018.57 1018.42 1018.27 1018.25 1018.33 1018.30 1018.26 1018.66 1019.15 1019.81 1019.89 1019.85 1019.86 1019.94 1019.98 1019.99 1019.93
1012.63 1013.54 1014.46 1015.28 1015.62 1015.95 1016.36 1016.58 1016.82 1017.04 1017.25 1017.46 1017.65 1017.89 1018.08 1018.20 1018.39 1018.56 1018.72 1018.91 1018.97 1019.09 1019.11 1019.00 1018.87 1018.72 1018.42 1018.09 1017.93 1017.83 1018.28 1018.53 1018.41 1019.05 1019.78 1020.18 1020.16 1020.18 1020.21 1020.24 1020.25 1020.27 1020.30
1012.43 1013.18 1014.02 1014.76 1015.19 1015.70 1016.26 1016.70 1016.88 1017.11 1017.35 1017.52 1017.70 1017.91 1018.12 1018.04 1018.30 1018.75 1018.83 1019.01 1019.19 1019.26 1019.11 1019.07 1019.10 1018.98 1018.88 1018.62 1018.12 1017.93 1018.06 1018.17 1018.47 1019.28 1020.10 1020.37 1020.42 1020.47 1020.48 1020.49 1020.46 1020.50 1020.44
1012.25 1012.71 1013.50 1014.05 1014.77 1015.34 1015.57 1016.51 1016.73 1017.06 1017.07 1017.25 1017.51 1017.88 1018.02 1017.88 1018.10 1018.42 1018.96 1019.21 1019.31 1019.24 1019.16 1019.22 1019.16 1019.20 1019.05 1018.41 1018.28 1018.00 1017.93 1017.84 1018.54 1019.52 1020.25 1020.47 1020.55 1020.60 1020.61 1020.64 1020.70 1020.65 1020.60
1011.88 1012.59 1013.19 1013.65 1014.05 1014.47 1015.35 1016.15 1016.63 1016.65 1016.78 1017.39 1017.96 1017.90 1018.01 1017.95 1018.14 1018.43 1019.10 1019.27 1019.39 1019.15 1018.92 1018.92 1019.05 1018.93 1018.63 1018.31 1018.05 1017.34 1017.25 1017.86 1018.43 1019.22 1020.09 1020.37 1020.53 1020.62 1020.69 1020.80 1020.84 1020.77 1020.72
1011.71 1012.21 1013.07 1013.88 1014.30 1014.60 1015.47 1015.96 1015.89 1016.40 1016.83 1017.15 1017.60 1017.59 1017.70 1017.73 1018.12 1018.48 1018.65 1018.78 1019.00 1018.80 1018.44 1018.54 1018.35 1017.99 1017.80 1017.45 1017.32 1017.31 1017.37 1017.67 1018.37 1019.14 1019.77 1020.01 1020.24 1020.46 1020.58 1020.69 1020.74 1020.73 1020.75
1011.83 1012.43 1013.18 1014.32 1014.58 1015.41 1015.94 1015.46 1017.31 1017.25 1016.92 1016.78 1017.63 1017.55 1017.72 1017.70 1017.83 1017.92 1018.15 1018.30 1018.62 1018.47 1018.18 1018.40 1018.08 1018.09 1017.80 1017.65 1017.45 1017.32 1017.48 1017.55 1018.11 1018.80 1019.45 1019.68 1019.81 1020.04 1020.20 1020.39 1020.54 1020.63 1020.71
1012.12 1012.74 1013.50 1014.37 1014.88 1015.13 1015.94 1015.99 1016.86 1016.96 1016.93 1017.13 1017.32 1017.31 1017.60 1017.95 1018.05 1017.93 1017.87 1017.91 1018.15 1018.13 1018.05 1018.22 1018.21 1018.20 1018.07 1018.00 1017.84 1017.64 1017.52 1017.59 1017.82 1018.52 1019.07 1019.43 1019.58 1019.68 1019.86 1019.98 1020.20 1020.41 1020.56
1012.22 1012.71 1013.77 1014.41 1014.80 1015.53 1015.74 1015.81 1016.11 1016.10 1016.33 1016.68 1016.73 1017.03 1017.25 1017.46 1017.61 1017.59 1017.58 1017.81 1017.90 1018.17 1018.32 1018.25 1018.18 1017.78 1017.74 1017.56 1017.84 1017.54 1017.64 1017.50 1017.83 1017.81 1018.29 1018.80 1019.41 1019.62 1019.69 1019.78 1019.87 1020.01 1020.15
1012.09 1013.01 1013.78 1014.06 1014.82 1015.34 1015.61 1015.62 1016.05 1015.91 1016.30 1016.31 1016.62 1017.07 1017.26 1017.46 1017.44 1017.65 1017.77 1017.85 1018.04 1018.24 1018.18 1018.26 1018.27 1018.11 1017.78 1017.83 1017.75 1017.66 1017.49 1017.53 1017.58 1017.70 1017.71 1018.02 1018.75 1018.94 1019.53 1019.54 1019.56 1019.61 1019.65
1012.00 1013.00 1013.65 1013.88 1014.55 1015.08 1015.27 1015.75 1015.67 1015.51 1015.61 1015.71 1016.23 1016.97 1017.25 1017.32 1017.36 1017.60 1017.57 1017.88 1018.05 1018.18 1018.09 1017.91 1017.92 1017.91 1017.92 1017.87 1017.76 1017.61 1017.41 1017.37 1017.15 1017.41 1017.50 1017.63 1017.71 1017.95 1018.61 1019.02 1019.17 1019.22 1019.28
1012.11 1012.98 1013.46 1013.81 1014.33 1014.92 1015.26 1015.59 1015.33 1015.11 1015.28 1015.18 1015.90 1016.52 1017.08 1017.15 1017.21 1017.39 1017.52 1017.70 1017.96 1018.27 1017.84 1017.96 1018.22 1018.18 1018.07 1017.83 1017.47 1017.33 1017.20 1017.10 1016.82 1017.03 1017.03 1016.92 1017.25 1017.32 1017.50 1018.30 1018.75 1018.83 1018.94
1011.92 1012.84 1013.29 1013.72 1014.39 1014.90 1015.10 1015.51 1015.61 1015.38 1015.69 1015.71 1015.97 1016.55 1016.80 1017.11 1017.12 1017.28 1017.48 1017.55 1017.81 1018.31 1018.09 1018.26 1018.46 1018.45 1018.30 1017.99 1017.93 1017.45 1017.10 1016.93 1016.81 1016.83 1016.72 1016.74 1016.94 1016.87 1017.13 1017.34 1017.80 1017.69 1018.33
1011.67 1012.57 1013.20 1013.70 1014.29 1014.74 1014.89 1014.97 1015.28 1015.41 1015.92 1015.64 1016.01 1016.32 1016.59 1016.92 1017.13 1017.18 1017.36 1017.53 1017.63 1017.89 1018.02 1018.36 1018.69 1018.80 1018.41 1018.10 1018.27 1017.83 1017.62 1017.16 1017.11 1016.95 1017.19 1017.24 1017.34 1017.12 1017.02 1016.99 1017.27 1017.33 1017.52
1011.30 1012.21 1012.96 1013.64 1014.16 1014.50 1014.59 1014.81 1015.10 1015.32 1015.76 1016.14 1016.15 1016.42 1016.57 1016.73 1016.96 1017.07 1017.08 1017.27 1017.46 1017.74 1018.05 1018.36 1018.57 1018.61 1018.56 1018.36 1018.17 1018.39 1018.32 1018.41 1018.05 1017.47 1017.21 1017.20 1017.38 1017.40 1017.20 1017.11 1017.02 1017.21 1017.33
1010.85 1011.83 1012.68 1013.33 1013.95 1014.25 1014.28 1014.35 1014.83 1015.06 1015.64 1015.83 1016.00 1016.06 1016.39 1016.60 1016.91 1016.95 1017.13 1017.27 1017.39 1017.64 1017.95 1018.25 1018.35 1018.64 1018.64 1018.69 1018.46 1018.24 1018.54 1018.84 1018.84 1018.73 1017.73 1017.46 1017.31 1017.22 1017.16 1016.98 1016.94 1017.00 1017.15
1010.11 1011.12 1012.21 1013.07 1013.70 1013.92 1014.03 1014.18 1014.44 1014.72 1014.96 1014.75 1015.23 1015.96 1016.33 1016.70 1016.74 1016.85 1017.15 1017.38 1017.56 1017.63 1017.89 1018.08 1018.34 1018.57 1018.76 1018.71 1018.59 1018.60 1018.59 1018.76 1018.88 1018.99 1018.64 1017.93 1017.43 1016.91 1016.77 1016.72 1016.66 1016.77 1016.81
1009.36 1010.39 1011.51 1012.59 1013.39 1013.67 1013.91 1014.35 1014.42 1014.44 1014.49 1014.70 1015.38 1015.70 1016.08 1016.28 1016.48 1016.43 1016.91 1017.33 1017.56 1017.67 1017.87 1018.04 1018.26 1018.60 1018.82 1018.94 1018.94 1018.99 1018.95 1018.86 1018.91 1018.95 1018.86 1018.42 1018.04 1017.09 1016.55 1016.34 1016.39 1016.29 1016.29
Thickness
5759 5758 5757 5755 5753 5753 5752 5751 5749 5749 5751 5751 5751 5753 5753 5756 5754 5753 5753 5750 5747 5746 5746 5750 5754 5755 5757 5757 5759 5762 5762 5760 5761 5761 5761 5760 5760 5761 5762 5762 5762 5759 5757
5767 5760 5757 5756 5754 5753 5753 5752 5751 5751 5751 5751 5751 5752 5753 5755 5754 5755 5754 5751 5749 5748 5748 5751 5755 5755 5758 5761 5763 5763 5760 5761 5761 5762 5763 5760 5760 5760 5760 5760 5759 5757 5757
5769 5759 5757 5756 5755 5753 5752 5751 5752 5752 5751 5750 5751 5753 5754 5754 5753 5753 5754 5754 5754 5752 5753 5755 5757 5759 5761 5763 5764 5763 5762 5761 5763 5765 5764 5763 5761 5759 5761 5760 5760 5758 5758
5771 5764 5758 5755 5754 5753 5752 5752 5752 5752 5752 5750 5752 5754 5754 5754 5754 5754 5755 5756 5758 5756 5756 5759 5760 5761 5762 5762 5764 5765 5765 5765 5768 5769 5769 5767 5763 5762 5761 5762 5761 5760 5759
5773 5765 5758 5756 5755 5754 5753 5753 5752 5752 5752 5752 5752 5753 5753 5753 5753 5754 5756 5756 5757 5758 5759 5761 5762 5762 5762 5763 5765 5767 5771 5770 5774 5771 5769 5768 5766 5763 5762 5763 5762 5760 5757
5773 5764 5758 5758 5756 5755 5755 5755 5753 5753 5753 5753 5752 5753 5753 5753 5754 5755 5756 5756 5757 5759 5760 5761 5762 5763 5763 5765 5768 5773 5774 5772 5774 5772 5770 5769 5765 5763 5763 5762 5760 5758 5756
5774 5765 5760 5759 5759 5757 5757 5756 5755 5754 5753 5753 5753 5753 5754 5755 5756 5757 5757 5757 5758 5759 5761 5762 5762 5764 5766 5769 5773 5776 5776 5780 5777 5775 5772 5767 5764 5763 5762 5761 5759 5756 5754
5776 5767 5762 5758 5758 5758 5757 5757 5756 5755 5754 5755 5755 5755 5755 5756 5757 5758 5759 5759 5760 5761 5762 5763 5764 5766 5769 5773 5776 5779 5778 5779 5781 5776 5771 5765 5763 5762 5761 5760 5758 5756 5754
5780 5770 5765 5761 5758 5758 5757 5758 5757 5756 5756 5756 5756 5756 5757 5758 5759 5759 5759 5760 5761 5761 5763 5765 5768 5770 5774 5777 5780 5780 5780 5779 5780 5776 5771 5765 5763 5762 5760 5758 5756 5754 5753
5785 5778 5770 5764 5762 5761 5758 5758 5758 5758 5757 5758 5758 5759 5760 5761 5760 5760 5761 5761 5762 5763 5766 5770 5773 5776 5780 5784 5785 5786 5783 5780 5780 5775 5769 5764 5762 5760 5759 5758 5756 5755 5753
5788 5784 5777 5771 5769 5765 5761 5760 5760 5760 5760 5760 5762 5762 5764 5765 5764 5762 5763 5764 5764 5766 5771 5774 5776 5777 5779 5782 5785 5787 5786 5784 5782 5775 5768 5765 5763 5762 5761 5759 5758 5756 5754
5787 5789 5785 5780 5774 5770 5768 5763 5765 5764 5765 5766 5766 5765 5766 5769 5769 5768 5766 5767 5769 5772 5775 5777 5778 5778 5781 5785 5786 5789 5790 5790 5785 5776 5771 5769 5767 5765 5765 5762 5760 5759 5756
5797 5793 5791 5787 5782 5781 5776 5769 5767 5770 5771 5769 5766 5770 5770 5772 5772 5772 5770 5771 5772 5777 5780 5781 5781 5784 5786 5790 5790 5796 5798 5793 5789 5783 5777 5774 5772 5770 5768 5765 5763 5761 5759
5802 5800 5795 5787 5787 5784 5782 5777 5775 5775 5772 5773 5772 5776 5776 5777 5776 5776 5778 5779 5779 5782 5787 5787 5790 5792 5794 5797 5798 5800 5801 5799 5794 5789 5784 5782 5778 5775 5773 5771 5769 5767 5764
5803 5803 5799 5788 5788 5783 5780 5787 5772 5774 5778 5778 5777 5778 5780 5781 5782 5785 5786 5786 5786 5788 5792 5792 5794 5795 5797 5798 5801 5804 5804 5803 5800 5796 5791 5788 5786 5784 5781 5778 5775 5772 5769
5806 5803 5802 5794 5789 5788 5781 5783 5777 5779 5780 5780 5784 5785 5786 5785 5786 5789 5792 5794 5794 5794 5796 5795 5796 5797 5799 5800 5803 5805 5808 5808 5805 5801 5797 5795 5793 5792 5789 5785 5782 5778 5773
5811 5809 5802 5800 5796 5790 5789 5787 5786 5788 5789 5788 5791 5791 5793 5793 5793 5795 5797 5798 5799 5798 5797 5798 5800 5803 5805 5807 5808 5811 5811 5812 5809 5809 5808 5803 5798 5796 5794 5791 5788 5784 5780
5816 5810 5806 5807 5802 5799 5797 5796 5795 5797 5794 5797 5797 5795 5796 5796 5798 5799 5800 5801 5801 5800 5801 5801 5803 5805 5808 5808 5809 5814 5816 5815 5814 5815 5814 5811 5806 5803 5799 5796 5793 5790 5787
5819 5813 5810 5810 5806 5804 5803 5802 5802 5805 5805 5806 5804 5800 5800 5801 5802 5803 5804 5803 5803 5803 5805 5808 5810 5811 5809 5811 5813 5815 5819 5821 5821 5820 5818 5816 5815 5813 5807 5803 5799 5796 5794
5820 5816 5815 5815 5811 5808 5808 5806 5809 5811 5811 5813 5810 5807 5805 5805 5806 5807 5807 5807 5806 5806 5810 5809 5808 5811 5813 5815 5819 5819 5822 5825 5826 5827 5825 5825 5822 5819 5816 5810 5805 5802 5799
5822 5816 5815 5815 5813 5811 5809 5805 5806 5808 5810 5812 5812 5810 5809 5808 5809 5809 5809 5809 5809 5806 5809 5809 5808 5807 5810 5818 5815 5819 5823 5828 5829 5830 5829 5829 5826 5826 5822 5819 5816 5813 5803
5821 5817 5816 5815 5813 5813 5814 5815 5814 5814 5811 5816 5814 5813 5812 5811 5810 5811 5811 5812 5811 5811 5811 5810 5808 5807 5812 5818 5809 5813 5806 5817 5825 5830 5829 5828 5826 5826 5825 5824 5818 5814 5811
5821 5819 5817 5816 5815 5815 5818 5818 5817 5818 5815 5812 5814 5814 5813 5812 5811 5811 5813 5812 5812 5813 5811 5810 5811 5811 5808 5817 5820 5811 5800 5794 5806 5824 5827 5828 5827 5826 5825 5824 5822 5818 5812
5824 5824 5821 5819 5817 5818 5821 5820 5817 5815 5808 5812 5815 5816 5814 5812 5809 5810 5811 5811 5811 5813 5812 5812 5815 5813 5814 5808 5818 5822 5819 5812 5798 5795 5821 5825 5828 5827 5827 5826 5823 5820 5815
5829 5826 5823 5820 5818 5820 5822 5822 5819 5817 5819 5823 5821 5815 5813 5811 5810 5810 5809 5810 5810 5811 5814 5814 5814 5814 5815 5814 5814 5816 5817 5815 5813 5803 5797 5810 5825 5830 5831 5828 5825 5821 5818
5833 5830 5826 5820 5817 5820 5821 5819 5819 5819 5822 5819 5815 5815 5814 5815 5815 5815 5811 5810 5810 5811 5813 5814 5815 5814 5814 5814 5814 5814 5812 5808 5807 5806 5802 5805 5807 5821 5830 5832 5828 5824 5819